Location: Kalama
(46.0086°N, 122.8433°W)
Time: 05:29:21
(UTC-08:00)

SO-50 - Visible Passes

Search period start: 04 December 2020 00:00
Search period end: 14 December 2020 00:00
Orbit: 621 x 664 km, 64.6° (Epoch: 03 December)

Date Brightness Start Highest point End Pass type
(mag) Time Alt. Az. Time Alt. Az. Time Alt. Az.
04 Dec ? 18:24:08 10° NNW 18:27:22 30° NNE 18:27:22 30° NNE visible
04 Dec ? 20:04:31 10° NW 20:05:01 13° NW 20:05:01 13° NW visible
05 Dec ? 17:09:25 10° N 17:12:04 15° NNE 17:14:35 10° ENE visible
05 Dec ? 18:48:52 10° NNW 18:52:16 47° N 18:52:16 47° N visible
06 Dec ? 17:33:48 10° NNW 17:37:33 25° NE 17:39:42 18° ENE visible
06 Dec ? 19:13:52 10° NW 19:17:23 46° WNW 19:17:23 46° WNW visible
07 Dec ? 17:58:25 10° NNW 18:02:48 47° NE 18:05:10 24° ESE visible
07 Dec ? 19:39:20 10° WNW 19:42:53 24° WSW 19:42:53 24° WSW visible
08 Dec ? 18:23:18 10° NW 18:27:49 82° SW 18:31:12 17° SSE visible
08 Dec ? 20:06:49 10° W 20:07:29 10° WSW 20:08:09 10° WSW visible
09 Dec ? 17:08:02 10° NNW 17:12:11 34° NE 17:16:19 10° ESE visible
09 Dec ? 18:48:30 10° NW 18:52:37 35° WSW 18:56:43 10° S visible
10 Dec ? 17:32:47 10° NNW 17:37:18 71° NE 17:41:48 10° SE visible
10 Dec ? 19:14:31 10° WNW 19:17:13 16° WSW 19:19:53 10° SSW visible
11 Dec ? 17:57:49 10° NW 18:02:12 52° WSW 18:06:35 10° SSE visible
12 Dec ? 18:23:21 10° WNW 18:26:53 23° WSW 18:30:24 10° SSW visible
13 Dec ? 17:07:14 10° NW 17:11:44 76° WSW 17:16:15 10° SSE visible
